| time (UTC) | temp F | wind direction | speed MPH | gust MPH | rain 1hr in | rain 24hr in | rain mn in | humidity % | barometer mb |
| 20260831144512 | 68 | 273 | 1.0 | 5.0 | 0.00 | 0.03 | 0.00 | 82 | 1019.4 |
| 20260831144018 | 68 | 291 | 1.0 | 5.0 | 0.00 | 0.03 | 0.00 | 83 | 1019.7 |
| 20260831143524 | 67 | 56 | 0.0 | 5.0 | 0.00 | 0.03 | 0.00 | 83 | 1019.9 |
| 20260831143115 | 67 | 69 | 1.0 | 3.0 | 0.00 | 0.03 | 0.00 | 83 | 1019.9 |
| 20260831142522 | 67 | 67 | 0.0 | 5.0 | 0.00 | 0.03 | 0.00 | 84 | 1019.8 |
| 20260831142025 | 67 | 13 | 0.0 | 5.0 | 0.00 | 0.03 | 0.00 | 84 | 1019.8 |
| 20260831141534 | 67 | 31 | 0.0 | 3.0 | 0.00 | 0.03 | 0.00 | 85 | 1019.8 |
| 20260831141018 | 67 | 82 | 0.0 | 2.0 | 0.00 | 0.03 | 0.00 | 86 | 1019.8 |
| 20260831140527 | 66 | 68 | 0.0 | 2.0 | 0.00 | 0.03 | 0.00 | 87 | 1019.8 |
| 20260831140031 | 66 | 69 | 0.0 | 2.0 | 0.00 | 0.03 | 0.00 | 89 | 1019.7 |
| 20260831135521 | 66 | 76 | 0.0 | 2.0 | 0.00 | 0.03 | 0.00 | 89 | 1019.7 |
| 20260831135008 | 66 | 43 | 0.0 | 0.0 | 0.00 | 0.03 | 0.00 | 89 | 1019.7 |
| 20260831134518 | 66 | 280 | 0.0 | 0.0 | 0.00 | 0.03 | 0.00 | 88 | 1019.8 |
| 20260831134021 | 66 | 280 | 0.0 | 0.0 | 0.00 | 0.03 | 0.00 | 88 | 1019.9 |
| 20260831133529 | 65 | 274 | 0.0 | 0.0 | 0.00 | 0.03 | 0.00 | 90 | 1019.8 |
| 20260831133029 | 65 | 274 | 0.0 | 0.0 | 0.00 | 0.03 | 0.00 | 90 | 1019.7 |
| 20260831132524 | 65 | 53 | 0.0 | 0.0 | 0.00 | 0.03 | 0.00 | 90 | 1019.8 |
| 20260831132010 | 64 | 304 | 0.0 | 0.0 | 0.00 | 0.03 | 0.00 | 91 | 1019.6 |
| 20260831131517 | 64 | 294 | 0.0 | 0.0 | 0.00 | 0.03 | 0.00 | 90 | 1019.5 |
| 20260831131021 | 64 | 294 | 0.0 | 0.0 | 0.00 | 0.03 | 0.00 | 91 | 1019.6 |
| 20260831130528 | 64 | 326 | 0.0 | 0.0 | 0.00 | 0.03 | 0.00 | 90 | 1019.6 |
| 20260831130012 | 64 | 326 | 0.0 | 0.0 | 0.00 | 0.03 | 0.00 | 91 | 1019.6 |
| 20260831125522 | 64 | 333 | 0.0 | 0.0 | 0.00 | 0.03 | 0.00 | 92 | 1019.7 |
| 20260831125011 | 64 | 260 | 0.0 | 0.0 | 0.00 | 0.03 | 0.00 | 92 | 1019.7 |
| 20260831124521 | 64 | 260 | 0.0 | 0.0 | 0.00 | 0.03 | 0.00 | 93 | 1019.8 |
| 20260831124026 | 64 | 260 | 0.0 | 0.0 | 0.00 | 0.03 | 0.00 | 93 | 1019.8 |
| 20260831123510 | 64 | 146 | 0.0 | 2.0 | 0.00 | 0.03 | 0.00 | 93 | 1019.8 |
| 20260831123020 | 64 | 276 | 0.0 | 2.0 | 0.00 | 0.03 | 0.00 | 94 | 1019.8 |
| 20260831122527 | 63 | 278 | 0.0 | 2.0 | 0.00 | 0.03 | 0.00 | 94 | 1019.8 |
| 20260831122014 | 63 | 295 | 0.0 | 2.0 | 0.00 | 0.03 | 0.00 | 94 | 1019.8 |
| 20260831121531 | 63 | 295 | 0.0 | 3.0 | 0.00 | 0.03 | 0.00 | 95 | 1019.8 |
| 20260831121002 | 63 | 298 | 0.0 | 3.0 | 0.00 | 0.03 | 0.00 | 95 | 1019.9 |
| 20260831120501 | 63 | 308 | 0.0 | 1.0 | 0.00 | 0.03 | 0.00 | 96 | 1019.8 |
| 20260831120103 | 63 | 308 | 0.0 | 1.0 | 0.00 | 0.03 | 0.00 | 97 | 1019.9 |
| 20260831115600 | 62 | 308 | 0.0 | 1.0 | 0.00 | 0.03 | 0.00 | 97 | 1020.0 |
| 20260831115100 | 62 | 312 | 0.0 | 0.0 | 0.00 | 0.03 | 0.00 | 97 | 1019.9 |
| 20260831114559 | 62 | 312 | 0.0 | 0.0 | 0.00 | 0.03 | 0.00 | 97 | 1019.9 |
| 20260831114101 | 62 | 311 | 0.0 | 0.0 | 0.00 | 0.03 | 0.00 | 97 | 1019.8 |
| 20260831113557 | 62 | 312 | 0.0 | 0.0 | 0.00 | 0.03 | 0.00 | 97 | 1019.8 |
| 20260831113058 | 61 | 312 | 0.0 | 0.0 | 0.00 | 0.03 | 0.00 | 97 | 1019.6 |
| 20260831112557 | 61 | 312 | 0.0 | 0.0 | 0.00 | 0.03 | 0.00 | 97 | 1019.6 |
| 20260831112056 | 61 | 312 | 0.0 | 0.0 | 0.00 | 0.03 | 0.00 | 97 | 1019.5 |
| 20260831111600 | 61 | 312 | 0.0 | 0.0 | 0.00 | 0.03 | 0.00 | 97 | 1019.5 |
| 20260831111055 | 61 | 312 | 0.0 | 0.0 | 0.00 | 0.03 | 0.00 | 97 | 1019.4 |
| 20260831110555 | 61 | 311 | 0.0 | 0.0 | 0.00 | 0.03 | 0.00 | 97 | 1019.4 |
| 20260831110058 | 61 | 311 | 0.0 | 0.0 | 0.00 | 0.03 | 0.00 | 97 | 1019.5 |
| 20260831105553 | 61 | 311 | 0.0 | 0.0 | 0.00 | 0.03 | 0.00 | 97 | 1019.4 |
| 20260831105054 | 61 | 311 | 0.0 | 0.0 | 0.00 | 0.03 | 0.00 | 97 | 1019.4 |
| 20260831104553 | 60 | 311 | 0.0 | 0.0 | 0.00 | 0.03 | 0.00 | 96 | 1019.3 |
| 20260831104053 | 60 | 311 | 0.0 | 0.0 | 0.00 | 0.03 | 0.00 | 96 | 1019.2 |
| 20260831103550 | 61 | 311 | 0.0 | 0.0 | 0.00 | 0.03 | 0.00 | 96 | 1019.1 |
| 20260831103050 | 61 | 311 | 0.0 | 0.0 | 0.00 | 0.03 | 0.00 | 96 | 1019.0 |
| 20260831102550 | 61 | 312 | 0.0 | 0.0 | 0.00 | 0.03 | 0.00 | 96 | 1019.0 |
| 20260831102049 | 61 | 312 | 0.0 | 0.0 | 0.00 | 0.03 | 0.00 | 96 | 1018.9 |
| 20260831101609 | 61 | 312 | 0.0 | 0.0 | 0.00 | 0.03 | 0.00 | 96 | 1018.8 |
| 20260831101050 | 61 | 312 | 0.0 | 0.0 | 0.00 | 0.03 | 0.00 | 96 | 1018.8 |
| 20260831100549 | 61 | 312 | 0.0 | 0.0 | 0.00 | 0.03 | 0.00 | 96 | 1018.9 |
| 20260831100058 | 61 | 312 | 0.0 | 0.0 | 0.00 | 0.03 | 0.00 | 96 | 1018.8 |
| 20260831095547 | 61 | 314 | 0.0 | 0.0 | 0.00 | 0.03 | 0.00 | 96 | 1018.9 |
| 20260831095046 | 61 | 311 | 0.0 | 0.0 | 0.00 | 0.03 | 0.00 | 96 | 1019.0 |
| 20260831094546 | 61 | 312 | 0.0 | 0.0 | 0.00 | 0.03 | 0.00 | 96 | 1018.9 |
| 20260831094046 | 61 | 312 | 0.0 | 0.0 | 0.00 | 0.03 | 0.00 | 96 | 1018.9 |
| 20260831093547 | 61 | 311 | 0.0 | 0.0 | 0.00 | 0.03 | 0.00 | 96 | 1018.9 |
| 20260831093048 | 61 | 311 | 0.0 | 0.0 | 0.00 | 0.03 | 0.00 | 96 | 1018.9 |
| 20260831092545 | 61 | 312 | 0.0 | 0.0 | 0.00 | 0.03 | 0.00 | 96 | 1018.8 |
| 20260831092046 | 61 | 311 | 0.0 | 0.0 | 0.00 | 0.03 | 0.00 | 96 | 1018.8 |
| 20260831091547 | 62 | 312 | 0.0 | 0.0 | 0.00 | 0.03 | 0.00 | 96 | 1018.8 |
| 20260831091044 | 61 | 312 | 0.0 | 0.0 | 0.00 | 0.03 | 0.00 | 96 | 1018.7 |
| 20260831090544 | 62 | 312 | 0.0 | 0.0 | 0.00 | 0.03 | 0.00 | 96 | 1018.7 |
| 20260831085544 | 62 | 312 | 0.0 | 0.0 | 0.00 | 0.03 | 0.00 | 95 | 1018.7 |
| 20260831085044 | 62 | 312 | 0.0 | 0.0 | 0.00 | 0.03 | 0.00 | 95 | 1018.8 |
| 20260831084544 | 62 | 312 | 0.0 | 0.0 | 0.00 | 0.03 | 0.00 | 95 | 1018.7 |
| 20260831084043 | 62 | 311 | 0.0 | 0.0 | 0.00 | 0.03 | 0.00 | 95 | 1018.7 |
| 20260831083543 | 62 | 312 | 0.0 | 0.0 | 0.00 | 0.03 | 0.00 | 95 | 1018.8 |
| 20260831083042 | 62 | 312 | 0.0 | 0.0 | 0.00 | 0.03 | 0.00 | 95 | 1018.8 |
| 20260831082542 | 62 | 311 | 0.0 | 1.0 | 0.00 | 0.03 | 0.00 | 95 | 1018.8 |
| 20260831082042 | 62 | 312 | 0.0 | 1.0 | 0.00 | 0.03 | 0.00 | 95 | 1018.9 |
| 20260831081542 | 62 | 312 | 0.0 | 0.0 | 0.00 | 0.03 | 0.00 | 95 | 1018.8 |
| 20260831081042 | 62 | 312 | 0.0 | 0.0 | 0.00 | 0.03 | 0.00 | 95 | 1018.8 |
| 20260831080541 | 62 | 311 | 0.0 | 0.0 | 0.00 | 0.03 | 0.00 | 95 | 1018.8 |
| 20260831080042 | 62 | 311 | 0.0 | 0.0 | 0.00 | 0.03 | 0.00 | 95 | 1018.8 |
| 20260831075540 | 62 | 312 | 0.0 | 0.0 | 0.00 | 0.03 | 0.00 | 94 | 1018.7 |
| 20260831075042 | 62 | 311 | 0.0 | 0.0 | 0.00 | 0.03 | 0.00 | 94 | 1018.7 |
| 20260831074540 | 62 | 312 | 0.0 | 3.0 | 0.00 | 0.03 | 0.00 | 94 | 1018.6 |
| 20260831074040 | 62 | 311 | 0.0 | 3.0 | 0.00 | 0.03 | 0.00 | 95 | 1018.4 |
| 20260831073539 | 62 | 340 | 0.0 | 1.0 | 0.00 | 0.03 | 0.00 | 95 | 1018.5 |
| 20260831073039 | 62 | 340 | 0.0 | 1.0 | 0.00 | 0.03 | 0.00 | 95 | 1018.4 |
| 20260831072538 | 62 | 340 | 0.0 | 1.0 | 0.00 | 0.03 | 0.00 | 95 | 1018.4 |
| 20260831072038 | 62 | 111 | 0.0 | 0.0 | 0.00 | 0.03 | 0.00 | 95 | 1018.5 |
| 20260831071538 | 62 | 112 | 0.0 | 1.0 | 0.00 | 0.03 | 0.00 | 95 | 1018.6 |
| 20260831071038 | 62 | 112 | 0.0 | 1.0 | 0.00 | 0.03 | 0.00 | 95 | 1018.5 |
| 20260831070538 | 61 | 322 | 0.0 | 1.0 | 0.00 | 0.03 | 0.00 | 95 | 1018.5 |
| 20260831070038 | 61 | 322 | 0.0 | 1.0 | 0.00 | 0.03 | 0.00 | 95 | 1018.6 |
| 20260831065538 | 61 | 322 | 0.0 | 1.0 | 0.00 | 0.03 | 0.00 | 95 | 1018.6 |
| 20260831065037 | 61 | 321 | 0.0 | 1.0 | 0.00 | 0.03 | 0.00 | 95 | 1018.6 |
| 20260831064538 | 62 | 322 | 0.0 | 0.0 | 0.00 | 0.03 | 0.00 | 94 | 1018.6 |
| 20260831064037 | 62 | 322 | 0.0 | 1.0 | 0.00 | 0.03 | 0.00 | 94 | 1018.6 |
| 20260831063536 | 62 | 322 | 0.0 | 4.0 | 0.00 | 0.03 | 0.00 | 94 | 1018.5 |
| 20260831063036 | 62 | 284 | 0.0 | 3.0 | 0.00 | 0.03 | 0.00 | 94 | 1018.6 |
| 20260831062536 | 62 | 267 | 0.0 | 3.0 | 0.00 | 0.03 | 0.00 | 94 | 1018.6 |
| 20260831062036 | 62 | 260 | 0.0 | 4.0 | 0.00 | 0.03 | 0.00 | 95 | 1018.6 |
| 20260831061540 | 61 | 272 | 2.0 | 4.0 | 0.00 | 0.03 | 0.00 | 95 | 1018.5 |
| 20260831061036 | 61 | 273 | 1.0 | 4.0 | 0.00 | 0.03 | 0.00 | 95 | 1018.5 |
| 20260831060535 | 61 | 297 | 0.0 | 4.0 | 0.00 | 0.03 | 0.00 | 95 | 1018.5 |
| 20260831060036 | 61 | 253 | 0.0 | 3.0 | 0.00 | 0.03 | 0.00 | 95 | 1018.6 |
| 20260831055534 | 61 | 295 | 1.0 | 3.0 | 0.00 | 0.03 | 0.00 | 95 | 1018.6 |
| 20260831055034 | 61 | 304 | 0.0 | 1.0 | 0.00 | 0.03 | 0.00 | 95 | 1018.6 |
| 20260831054534 | 61 | 269 | 0.0 | 2.0 | 0.00 | 0.03 | 0.00 | 95 | 1018.7 |
| 20260831054034 | 61 | 295 | 0.0 | 2.0 | 0.00 | 0.03 | 0.00 | 94 | 1018.6 |
| 20260831053533 | 62 | 269 | 0.0 | 3.0 | 0.00 | 0.03 | 0.00 | 94 | 1018.6 |
| 20260831053032 | 62 | 267 | 0.0 | 4.0 | 0.00 | 0.03 | 0.00 | 94 | 1018.6 |
| 20260831052532 | 62 | 283 | 0.0 | 4.0 | 0.00 | 0.03 | 0.00 | 94 | 1018.6 |
| 20260831052032 | 62 | 297 | 1.0 | 5.0 | 0.00 | 0.03 | 0.00 | 94 | 1018.6 |
| 20260831051536 | 62 | 285 | 1.0 | 5.0 | 0.00 | 0.03 | 0.00 | 94 | 1018.6 |
| 20260831051030 | 62 | 251 | 2.0 | 4.0 | 0.00 | 0.03 | 0.00 | 94 | 1018.6 |
| 20260831050530 | 62 | 293 | 1.0 | 4.0 | 0.00 | 0.03 | 0.00 | 94 | 1018.6 |
| 20260831050030 | 62 | 259 | 0.0 | 4.0 | 0.00 | 0.03 | 0.00 | 94 | 1018.6 |
| 20260831045530 | 62 | 309 | 0.0 | 5.0 | 0.00 | 0.03 | 0.00 | 94 | 1018.7 |
| 20260831045032 | 62 | 255 | 1.0 | 5.0 | 0.00 | 0.03 | 0.00 | 94 | 1018.7 |
| 20260831044529 | 62 | 283 | 2.0 | 7.0 | 0.00 | 0.03 | 0.00 | 94 | 1018.6 |
| 20260831044032 | 62 | 298 | 4.0 | 7.0 | 0.00 | 0.03 | 0.00 | 94 | 1018.6 |
| 20260831043527 | 62 | 295 | 2.0 | 7.0 | 0.00 | 0.03 | 0.00 | 94 | 1018.6 |
| 20260831043027 | 62 | 284 | 4.0 | 7.0 | 0.00 | 0.03 | 0.00 | 94 | 1018.6 |
| 20260831042528 | 62 | 301 | 3.0 | 6.0 | 0.00 | 0.03 | 0.00 | 94 | 1018.6 |
| 20260831042027 | 62 | 308 | 1.0 | 6.0 | 0.00 | 0.03 | 0.00 | 94 | 1018.5 |
| 20260831041529 | 62 | 299 | 2.0 | 6.0 | 0.00 | 0.03 | 0.00 | 94 | 1018.5 |
| 20260831041029 | 62 | 298 | 2.0 | 8.0 | 0.00 | 0.03 | 0.00 | 94 | 1018.5 |
| 20260831040528 | 63 | 302 | 5.0 | 8.0 | 0.00 | 0.03 | 0.00 | 94 | 1018.6 |
| 20260831040024 | 62 | 289 | 3.0 | 6.0 | 0.00 | 0.03 | 0.00 | 94 | 1018.6 |
| 20260831035524 | 62 | 276 | 3.0 | 5.0 | 0.00 | 0.03 | 0.03 | 95 | 1018.6 |
| 20260831035024 | 62 | 283 | 2.0 | 5.0 | 0.00 | 0.03 | 0.03 | 95 | 1018.8 |
| 20260831034524 | 62 | 297 | 2.0 | 4.0 | 0.00 | 0.03 | 0.03 | 95 | 1018.8 |
| 20260831034024 | 62 | 293 | 1.0 | 5.0 | 0.00 | 0.03 | 0.03 | 95 | 1018.9 |
| 20260831033523 | 62 | 283 | 1.0 | 5.0 | 0.00 | 0.03 | 0.03 | 95 | 1018.9 |
| 20260831033032 | 62 | 295 | 2.0 | 5.0 | 0.00 | 0.03 | 0.03 | 94 | 1019.0 |
| 20260831032523 | 62 | 294 | 1.0 | 5.0 | 0.00 | 0.03 | 0.03 | 94 | 1019.0 |
| 20260831032023 | 62 | 291 | 1.0 | 5.0 | 0.00 | 0.03 | 0.03 | 94 | 1019.0 |
| 20260831031528 | 63 | 262 | 1.0 | 8.0 | 0.00 | 0.03 | 0.03 | 94 | 1019.0 |
| 20260831031022 | 63 | 303 | 5.0 | 8.0 | 0.00 | 0.03 | 0.03 | 93 | 1019.1 |
| 20260831030522 | 63 | 288 | 3.0 | 6.0 | 0.00 | 0.03 | 0.03 | 93 | 1019.0 |
| 20260831030023 | 63 | 311 | 1.0 | 4.0 | 0.00 | 0.03 | 0.03 | 93 | 1019.0 |
| 20260831025522 | 63 | 289 | 1.0 | 5.0 | 0.00 | 0.03 | 0.03 | 94 | 1018.9 |
| 20260831025021 | 63 | 294 | 2.0 | 5.0 | 0.00 | 0.03 | 0.03 | 94 | 1018.9 |
| 20260831024538 | 63 | 285 | 1.0 | 4.0 | 0.00 | 0.03 | 0.03 | 94 | 1018.9 |
| 20260831024021 | 63 | 276 | 0.0 | 4.0 | 0.00 | 0.03 | 0.03 | 94 | 1018.8 |
| 20260831023520 | 63 | 294 | 2.0 | 6.0 | 0.00 | 0.03 | 0.03 | 94 | 1018.9 |
| 20260831023020 | 62 | 296 | 2.0 | 6.0 | 0.00 | 0.03 | 0.03 | 94 | 1018.8 |
| 20260831022520 | 63 | 294 | 2.0 | 6.0 | 0.00 | 0.03 | 0.03 | 94 | 1018.8 |
| 20260831022020 | 62 | 302 | 3.0 | 6.0 | 0.00 | 0.03 | 0.03 | 94 | 1018.6 |
| 20260831021521 | 62 | 291 | 2.0 | 7.0 | 0.00 | 0.03 | 0.03 | 94 | 1018.6 |
| 20260831021023 | 62 | 298 | 3.0 | 7.0 | 0.00 | 0.03 | 0.03 | 94 | 1018.6 |
| 20260831020520 | 62 | 302 | 1.0 | 6.0 | 0.00 | 0.03 | 0.03 | 94 | 1018.5 |
| 20260831020020 | 62 | 306 | 3.0 | 6.0 | 0.00 | 0.03 | 0.03 | 94 | 1018.5 |
| 20260831015523 | 62 | 276 | 1.0 | 4.0 | 0.00 | 0.03 | 0.03 | 94 | 1018.6 |
| 20260831015018 | 62 | 303 | 1.0 | 6.0 | 0.00 | 0.03 | 0.03 | 94 | 1018.7 |
| 20260831014533 | 62 | 267 | 2.0 | 6.0 | 0.00 | 0.03 | 0.03 | 94 | 1018.7 |
| 20260831014018 | 62 | 288 | 2.0 | 7.0 | 0.00 | 0.03 | 0.03 | 94 | 1018.6 |
| 20260831013520 | 63 | 297 | 4.0 | 7.0 | 0.00 | 0.03 | 0.03 | 94 | 1018.7 |
| 20260831013021 | 63 | 278 | 4.0 | 9.0 | 0.00 | 0.03 | 0.03 | 93 | 1018.7 |
| 20260831012520 | 63 | 294 | 5.0 | 9.0 | 0.00 | 0.03 | 0.03 | 93 | 1018.7 |
| 20260831012118 | 63 | 276 | 4.0 | 9.0 | 0.00 | 0.03 | 0.03 | 93 | 1018.7 |
| 20260831011518 | 63 | 287 | 3.0 | 7.0 | 0.00 | 0.03 | 0.03 | 93 | 1018.7 |
| 20260831011017 | 63 | 312 | 3.0 | 7.0 | 0.00 | 0.03 | 0.03 | 93 | 1018.6 |
| 20260831010517 | 63 | 298 | 2.0 | 7.0 | 0.00 | 0.03 | 0.03 | 93 | 1018.5 |
| 20260831010016 | 63 | 293 | 4.0 | 8.0 | 0.00 | 0.03 | 0.03 | 92 | 1018.4 |
| 20260831005516 | 63 | 281 | 5.0 | 8.0 | 0.00 | 0.03 | 0.03 | 92 | 1018.3 |
| 20260831005018 | 63 | 298 | 4.0 | 10.0 | 0.00 | 0.03 | 0.03 | 92 | 1018.2 |
| 20260831004518 | 63 | 304 | 4.0 | 10.0 | 0.00 | 0.03 | 0.03 | 92 | 1018.1 |
| 20260831004019 | 63 | 291 | 5.0 | 9.0 | 0.00 | 0.03 | 0.03 | 92 | 1018.0 |
| 20260831003517 | 63 | 293 | 5.0 | 10.0 | 0.00 | 0.03 | 0.03 | 91 | 1017.8 |
| 20260831003015 | 63 | 271 | 4.0 | 10.0 | 0.00 | 0.03 | 0.03 | 92 | 1017.8 |
| 20260831002522 | 63 | 283 | 6.0 | 9.0 | 0.00 | 0.03 | 0.03 | 92 | 1017.7 |
| 20260831002021 | 63 | 300 | 4.0 | 8.0 | 0.00 | 0.03 | 0.03 | 92 | 1017.5 |
| 20260831001511 | 63 | 283 | 3.0 | 7.0 | 0.00 | 0.03 | 0.03 | 92 | 1017.4 |
| 20260831001018 | 63 | 283 | 2.0 | 7.0 | 0.00 | 0.03 | 0.03 | 92 | 1017.4 |
| 20260831000504 | 63 | 269 | 4.0 | 9.0 | 0.00 | 0.03 | 0.03 | 92 | 1017.3 |
| 20260831000012 | 63 | 298 | 5.0 | 8.0 | 0.00 | 0.03 | 0.03 | 92 | 1017.2 |
| 20260830235520 | 63 | 281 | 4.0 | 7.0 | 0.00 | 0.03 | 0.03 | 92 | 1017.1 |
| 20260830235011 | 63 | 276 | 4.0 | 7.0 | 0.00 | 0.03 | 0.03 | 92 | 1017.0 |
| 20260830234518 | 63 | 269 | 3.0 | 7.0 | 0.00 | 0.03 | 0.03 | 92 | 1017.1 |
| 20260830234024 | 63 | 307 | 3.0 | 7.0 | 0.00 | 0.03 | 0.03 | 92 | 1017.0 |
| 20260830233510 | 63 | 306 | 5.0 | 7.0 | 0.00 | 0.03 | 0.03 | 93 | 1016.9 |
| 20260830233018 | 63 | 296 | 4.0 | 8.0 | 0.00 | 0.03 | 0.03 | 93 | 1017.0 |
| 20260830232530 | 63 | 277 | 4.0 | 8.0 | 0.00 | 0.03 | 0.03 | 94 | 1017.0 |
| 20260830232012 | 63 | 287 | 2.0 | 5.0 | 0.00 | 0.03 | 0.03 | 94 | 1017.0 |
| 20260830231530 | 62 | 305 | 2.0 | 6.0 | 0.01 | 0.03 | 0.03 | 95 | 1016.9 |
| 20260830231008 | 62 | 283 | 2.0 | 4.0 | 0.01 | 0.03 | 0.03 | 95 | 1017.0 |
| 20260830230518 | 62 | 288 | 0.0 | 2.0 | 0.02 | 0.03 | 0.03 | 95 | 1016.9 |
| 20260830230020 | 62 | 280 | 0.0 | 1.0 | 0.02 | 0.03 | 0.03 | 95 | 1016.9 |
| 20260830225528 | 63 | 280 | 0.0 | 0.0 | 0.02 | 0.03 | 0.03 | 95 | 1017.0 |
| 20260830225011 | 62 | 280 | 0.0 | 0.0 | 0.03 | 0.03 | 0.03 | 95 | 1017.0 |
| 20260830224520 | 63 | 280 | 0.0 | 0.0 | 0.03 | 0.03 | 0.03 | 95 | 1017.1 |
| 20260830224022 | 63 | 280 | 0.0 | 2.0 | 0.03 | 0.03 | 0.03 | 95 | 1017.1 |
| 20260830223526 | 63 | 280 | 0.0 | 2.0 | 0.03 | 0.03 | 0.03 | 95 | 1017.3 |
| 20260830223012 | 63 | 280 | 0.0 | 1.0 | 0.03 | 0.03 | 0.03 | 94 | 1017.2 |
| 20260830222516 | 63 | 280 | 0.0 | 2.0 | 0.03 | 0.03 | 0.03 | 94 | 1017.3 |
| 20260830222020 | 63 | 287 | 0.0 | 2.0 | 0.02 | 0.02 | 0.02 | 94 | 1017.5 |
| 20260830221526 | 63 | 289 | 0.0 | 2.0 | 0.02 | 0.02 | 0.02 | 94 | 1017.4 |
| 20260830221009 | 63 | 278 | 0.0 | 2.0 | 0.02 | 0.02 | 0.02 | 93 | 1017.5 |
| 20260830220522 | 63 | 289 | 0.0 | 2.0 | 0.01 | 0.01 | 0.01 | 93 | 1017.4 |
| 20260830220025 | 63 | 287 | 0.0 | 5.0 | 0.01 | 0.01 | 0.01 | 92 | 1017.5 |
| 20260830215528 | 63 | 280 | 1.0 | 6.0 | 0.01 | 0.01 | 0.01 | 92 | 1017.4 |
| 20260830215015 | 64 | 283 | 3.0 | 9.0 | 0.00 | 0.00 | 0.00 | 91 | 1017.5 |
| 20260830214522 | 64 | 271 | 5.0 | 10.0 | 0.00 | 0.00 | 0.00 | 91 | 1017.5 |
| 20260830214024 | 64 | 262 | 3.0 | 12.0 | 0.00 | 0.00 | 0.00 | 89 | 1017.5 |
| 20260830213515 | 65 | 280 | 6.0 | 16.0 | 0.00 | 0.00 | 0.00 | 87 | 1017.5 |
| 20260830213017 | 66 | 250 | 7.0 | 13.0 | 0.00 | 0.00 | 0.00 | 85 | 1017.4 |
| 20260830212527 | 66 | 295 | 4.0 | 12.0 | 0.00 | 0.00 | 0.00 | 84 | 1017.1 |
| 20260830212013 | 67 | 308 | 6.0 | 10.0 | 0.00 | 0.00 | 0.00 | 81 | 1017.0 |
| 20260830211518 | 68 | 263 | 4.0 | 10.0 | 0.00 | 0.00 | 0.00 | 79 | 1017.0 |
| 20260830211025 | 68 | 296 | 6.0 | 9.0 | 0.00 | 0.00 | 0.00 | 78 | 1017.1 |
| 20260830210513 | 69 | 273 | 4.0 | 8.0 | 0.00 | 0.00 | 0.00 | 77 | 1017.1 |
| 20260830210016 | 69 | 283 | 4.0 | 8.0 | 0.00 | 0.00 | 0.00 | 77 | 1017.0 |
| 20260830205521 | 69 | 288 | 2.0 | 5.0 | 0.00 | 0.00 | 0.00 | 78 | 1016.9 |
| 20260830205008 | 69 | 301 | 3.0 | 5.0 | 0.00 | 0.00 | 0.00 | 77 | 1016.9 |
| 20260830204513 | 69 | 294 | 2.0 | 4.0 | 0.00 | 0.00 | 0.00 | 77 | 1016.9 |
| 20260830204019 | 69 | 288 | 2.0 | 4.0 | 0.00 | 0.00 | 0.00 | 76 | 1016.9 |
| 20260830203509 | 69 | 292 | 1.0 | 4.0 | 0.00 | 0.00 | 0.00 | 76 | 1016.9 |
| 20260830203028 | 69 | 280 | 1.0 | 4.0 | 0.00 | 0.00 | 0.00 | 76 | 1016.8 |
| 20260830202523 | 70 | 282 | 1.0 | 4.0 | 0.00 | 0.00 | 0.00 | 77 | 1016.8 |
| 20260830202011 | 70 | 309 | 0.0 | 4.0 | 0.00 | 0.00 | 0.00 | 79 | 1016.8 |
| 20260830201535 | 70 | 280 | 0.0 | 5.0 | 0.00 | 0.00 | 0.00 | 78 | 1016.8 |
| 20260830201022 | 70 | 293 | 1.0 | 5.0 | 0.00 | 0.00 | 0.00 | 77 | 1016.8 |
| 20260830200511 | 70 | 302 | 0.0 | 5.0 | 0.00 | 0.00 | 0.00 | 76 | 1016.7 |
| 20260830200020 | 70 | 280 | 2.0 | 5.0 | 0.00 | 0.00 | 0.00 | 75 | 1016.7 |
| 20260830195525 | 70 | 287 | 2.0 | 5.0 | 0.00 | 0.00 | 0.00 | 75 | 1016.7 |
| 20260830195008 | 70 | 284 | 3.0 | 5.0 | 0.00 | 0.00 | 0.00 | 76 | 1016.8 |
| 20260830194517 | 70 | 293 | 2.0 | 7.0 | 0.00 | 0.00 | 0.00 | 76 | 1016.8 |
| 20260830194022 | 70 | 288 | 2.0 | 7.0 | 0.00 | 0.00 | 0.00 | 75 | 1016.7 |
| 20260830193509 | 70 | 296 | 3.0 | 7.0 | 0.00 | 0.00 | 0.00 | 74 | 1016.8 |
| 20260830193017 | 71 | 301 | 2.0 | 7.0 | 0.00 | 0.00 | 0.00 | 74 | 1016.8 |
| 20260830192524 | 71 | 307 | 3.0 | 6.0 | 0.00 | 0.00 | 0.00 | 75 | 1016.8 |
| 20260830192013 | 71 | 290 | 3.0 | 6.0 | 0.00 | 0.00 | 0.00 | 74 | 1016.9 |
| 20260830191522 | 71 | 293 | 2.0 | 5.0 | 0.00 | 0.00 | 0.00 | 74 | 1016.9 |
| 20260830191022 | 71 | 271 | 3.0 | 5.0 | 0.00 | 0.00 | 0.00 | 73 | 1017.1 |
| 20260830190509 | 71 | 262 | 2.0 | 5.0 | 0.00 | 0.00 | 0.00 | 75 | 1017.2 |
| 20260830190028 | 71 | 278 | 3.0 | 5.0 | 0.00 | 0.00 | 0.00 | 73 | 1017.2 |
| 20260830185519 | 71 | 301 | 3.0 | 5.0 | 0.00 | 0.00 | 0.00 | 74 | 1017.3 |
| 20260830185019 | 71 | 305 | 4.0 | 7.0 | 0.00 | 0.00 | 0.00 | 73 | 1017.4 |
| 20260830184507 | 71 | 274 | 4.0 | 6.0 | 0.00 | 0.00 | 0.00 | 73 | 1017.4 |
| 20260830184015 | 71 | 296 | 3.0 | 7.0 | 0.00 | 0.00 | 0.00 | 74 | 1017.4 |
| 20260830183517 | 71 | 282 | 3.0 | 7.0 | 0.00 | 0.00 | 0.00 | 74 | 1017.4 |
| 20260830183024 | 71 | 305 | 3.0 | 9.0 | 0.00 | 0.00 | 0.00 | 74 | 1017.4 |
| 20260830182513 | 71 | 290 | 3.0 | 9.0 | 0.00 | 0.00 | 0.00 | 72 | 1017.5 |
| 20260830182019 | 71 | 295 | 3.0 | 9.0 | 0.00 | 0.00 | 0.00 | 75 | 1017.5 |
| 20260830181506 | 71 | 294 | 5.0 | 9.0 | 0.00 | 0.00 | 0.00 | 76 | 1017.6 |
| 20260830181014 | 71 | 274 | 5.0 | 9.0 | 0.00 | 0.00 | 0.00 | 76 | 1017.5 |
| 20260830180523 | 71 | 264 | 6.0 | 9.0 | 0.00 | 0.00 | 0.00 | 72 | 1017.6 |
| 20260830180022 | 71 | 296 | 5.0 | 10.0 | 0.00 | 0.00 | 0.00 | 74 | 1017.6 |
| 20260830175510 | 71 | 295 | 4.0 | 10.0 | 0.00 | 0.00 | 0.00 | 72 | 1017.6 |
| 20260830175017 | 71 | 290 | 4.0 | 10.0 | 0.00 | 0.00 | 0.00 | 75 | 1017.6 |
| 20260830174525 | 71 | 274 | 4.0 | 9.0 | 0.00 | 0.00 | 0.00 | 73 | 1017.6 |
| 20260830174007 | 71 | 271 | 4.0 | 10.0 | 0.00 | 0.00 | 0.00 | 75 | 1017.6 |
| 20260830173518 | 71 | 297 | 4.0 | 10.0 | 0.00 | 0.00 | 0.00 | 75 | 1017.7 |
| 20260830173032 | 70 | 269 | 4.0 | 9.0 | 0.00 | 0.00 | 0.00 | 74 | 1017.7 |
| 20260830172508 | 70 | 314 | 5.0 | 9.0 | 0.00 | 0.00 | 0.00 | 74 | 1017.8 |
| 20260830172015 | 70 | 250 | 4.0 | 8.0 | 0.00 | 0.00 | 0.00 | 75 | 1017.9 |
| 20260830171518 | 70 | 296 | 3.0 | 6.0 | 0.00 | 0.00 | 0.00 | 76 | 1017.9 |
| 20260830171003 | 70 | 295 | 4.0 | 7.0 | 0.00 | 0.00 | 0.00 | 74 | 1017.8 |
| 20260830170510 | 70 | 323 | 3.0 | 8.0 | 0.00 | 0.00 | 0.00 | 75 | 1018.0 |
| 20260830170016 | 70 | 296 | 4.0 | 9.0 | 0.00 | 0.00 | 0.00 | 77 | 1018.1 |
| 20260830165509 | 70 | 284 | 5.0 | 9.0 | 0.00 | 0.00 | 0.00 | 76 | 1018.1 |
| 20260830165015 | 70 | 266 | 3.0 | 11.0 | 0.00 | 0.00 | 0.00 | 76 | 1018.2 |
| 20260830164531 | 70 | 261 | 5.0 | 11.0 | 0.00 | 0.00 | 0.00 | 75 | 1018.2 |
| 20260830164022 | 70 | 301 | 4.0 | 10.0 | 0.00 | 0.00 | 0.00 | 75 | 1018.2 |
| 20260830163512 | 70 | 261 | 4.0 | 14.0 | 0.00 | 0.00 | 0.00 | 75 | 1018.2 |
| 20260830163112 | 70 | 296 | 5.0 | 14.0 | 0.00 | 0.00 | 0.00 | 74 | 1018.2 |
| 20260830162518 | 70 | 284 | 4.0 | 11.0 | 0.00 | 0.00 | 0.00 | 73 | 1018.3 |
| 20260830162021 | 70 | 291 | 6.0 | 11.0 | 0.00 | 0.00 | 0.00 | 73 | 1018.3 |
| 20260830161509 | 70 | 293 | 4.0 | 12.0 | 0.00 | 0.00 | 0.00 | 73 | 1018.4 |
| 20260830161015 | 70 | 250 | 7.0 | 12.0 | 0.00 | 0.00 | 0.00 | 72 | 1018.4 |
| 20260830160523 | 70 | 302 | 6.0 | 12.0 | 0.00 | 0.00 | 0.00 | 73 | 1018.5 |
| 20260830160013 | 70 | 291 | 2.0 | 9.0 | 0.00 | 0.00 | 0.00 | 73 | 1018.5 |
| 20260830155517 | 70 | 273 | 3.0 | 9.0 | 0.00 | 0.00 | 0.00 | 72 | 1018.7 |
| 20260830155019 | 70 | 282 | 1.0 | 8.0 | 0.00 | 0.00 | 0.00 | 75 | 1018.7 |
| 20260830154509 | 70 | 298 | 3.0 | 8.0 | 0.00 | 0.00 | 0.00 | 73 | 1018.7 |
| 20260830154015 | 70 | 290 | 3.0 | 12.0 | 0.00 | 0.00 | 0.00 | 73 | 1018.7 |
| 20260830153522 | 70 | 303 | 4.0 | 7.0 | 0.00 | 0.00 | 0.00 | 72 | 1018.8 |
| 20260830153010 | 69 | 288 | 4.0 | 8.0 | 0.00 | 0.00 | 0.00 | 72 | 1018.9 |
| 20260830152520 | 69 | 308 | 4.0 | 9.0 | 0.00 | 0.00 | 0.00 | 72 | 1018.8 |
| 20260830152022 | 69 | 314 | 3.0 | 9.0 | 0.00 | 0.00 | 0.00 | 71 | 1018.9 |
| 20260830151519 | 69 | 310 | 2.0 | 8.0 | 0.00 | 0.00 | 0.00 | 72 | 1019.0 |
| 20260830151015 | 69 | 314 | 3.0 | 8.0 | 0.00 | 0.00 | 0.00 | 71 | 1019.0 |
| 20260830150519 | 69 | 298 | 3.0 | 9.0 | 0.00 | 0.00 | 0.00 | 71 | 1019.1 |
| 20260830150020 | 69 | 290 | 4.0 | 9.0 | 0.00 | 0.00 | 0.00 | 71 | 1019.2 |
| 20260830145508 | 68 | 311 | 5.0 | 11.0 | 0.00 | 0.00 | 0.00 | 71 | 1019.2 |
| 20260830145014 | 68 | 297 | 6.0 | 11.0 | 0.00 | 0.00 | 0.00 | 70 | 1019.2 |